Preview of NWS' New Version of Forecast
This preview is not operational and should not be used for support decisions.
Latest weather observations around

Montgomery, Dannelly Field (KMGM)

Using English Units (Switch to International System of Units)
Date/ Time (CDT) Wind (mph) Vis. (mi) Weather Sky Cond. Temp (°F) Rel. Humidity Wind Chill (°F) Heat Index (°F) Pressure Precip. (in)
Air Dwpt 6 hour Altimeter (inHg) Sea level (inHg) 1 hr 3 hr 6 hr
Max Min
Aug 20 17:53 SSE 8 10 Clear CLR 82 72     72%   87 30.06 30.05      
Aug 20 16:53 S 16 10 Clear CLR 84 69     61%   88 30.04 30.03      
Aug 20 15:53 SSE 7 10 Mostly Clear FEW048 94 70     46%   100 30.03 30.02      
Aug 20 14:53 S 6 10 Clear CLR 93 72     51%   101 30.04 30.03      
Aug 20 13:53 5 10 Mostly Cloudy BKN034 90 74     59%   99 30.06 30.05      
Aug 20 12:55 S 8 10 Mostly Cloudy BKN034 88 73     61%   96 30.1        
Aug 20 12:53 S 8 10 Clear CLR 88 73     61%   96 30.1 30.09      
Aug 20 11:53 5 10 Mostly Clear FEW034 91 72     54%   99 30.12 30.11      
Aug 20 10:53 5 10 Clear CLR 87 72     61%   94 30.11 30.1      
Aug 20 09:53 3 10 Clear CLR 83 73     72%   89 30.09 30.09      
Aug 20 08:53 ESE 5 10 Partly Cloudy SCT009 79 73     82%   82 30.11 30.1      
Aug 20 08:40 3 10 Partly Cloudy SCT008 79 73     82%   82 30.11        
Aug 20 07:53 Calm 10 Mostly Clear FEW055 78 72     82%   79 30.11 30.11      
Aug 20 06:53 Calm 6 Fog/Mist CLR 73 71     94%   74 30.11 30.1      
Aug 20 05:53 Calm 10 Clear CLR 73 70     90%   74 30.09 30.08      
Aug 20 04:53 SSW 3 8 Clear CLR 72 70     93%   73 30.07 30.06      
Aug 20 03:53 Calm 10 Clear CLR 72 69     91%   73 30.06 30.05      
Aug 20 02:53 S 3 6 Fog/Mist CLR 72 70     93%   73 30.06 30.05      
Aug 20 01:53 SSW 3 7 Clear CLR 74 71     91%   75 30.06 30.05      
Aug 20 00:53 S 5 8 Clear   74 72     94%   75 30.07 30.06     0
Aug 19 23:53 SE 3 10 Mostly Cloudy BKN050 75 72     90%   76 30.07 30.06      
Aug 19 22:53 N 3 10 Clear CLR 75 72     90%   76 30.06 30.06      
Aug 19 21:53 W 3 10 Clear CLR 75 72     90%   76 30.05 30.04   0  
Aug 19 20:53   10 Mostly Cloudy BKN065 75 72     90%   76 30.08 30.07      
Aug 19 19:53 W 5 10 Clear CLR 75 72     90%   76 30.05 30.04 0    
Aug 19 19:45 WNW 3 10 Mostly Clear FEW120 75 72     90%   76 30.05   0    
Aug 19 19:25 NW 3 10 Partly Cloudy SCT120 76 72     88%   77 30.05   0    
Aug 19 18:53 SW 7 4 Thunderstorms and Rain and Fog/Mist FEW022 BKN080 BKN095 76 73     91%   77 30.04 30.03 0   0
Aug 19 18:51 SW 8 2.5 Thunderstorms and Rain and Fog/Mist FEW022 BKN080 OVC110 75 73     94%   77 30.03   0    
Aug 19 18:39 SSW 5 10 Light Rain FEW029 SCT065 OVC090 77 74     90%   79 30.05   0    
Aug 19 18:32 SSW 6 2 Light Rain and Fog/Mist SCT029 BKN080 OVC095 77 73     88%   79 30.05   0    
Aug 19 18:24 SW 10 0.75 Heavy Rain and Fog/Mist SCT029 BKN070 BKN085 76 72     88%   77 30.04   0    
Aug 19 18:21 SSW 7 1.5 Thunderstorms and Heavy Rain and Fog/Mist SCT029 BKN065 BKN085 77 73     88%   79 30.03   0    
Aug 19 18:04 SSE 9 9 Thunderstorms and Rain FEW039 BKN070 BKN080 77 72     84%   78 30.02   0    
Aug 19 17:53 SSE 8 3 Rain BKN049 BKN060 OVC090 76 70     82%   77 30.02 30.01 0    
Aug 19 17:48 SE 9 2 Heavy Rain SCT049 BKN055 OVC090 75 70     83%   76 30.02   0    
Aug 19 17:38   4 Rain BKN055 BKN065 BKN100 78 67     69%   79 29.99   0    
Aug 19 16:53 S 13 10 Mostly Cloudy FEW055 SCT070 BKN100 89 69     52%   94 29.96 29.96      
Aug 19 15:53 7 10 Mostly Clear FEW055 95 72     48%   104 29.95 29.94      
Aug 19 14:53 ESE 14 10 Partly Cloudy FEW070 SCT100 93 72     51%   101 29.96 29.94      
Aug 19 13:53 E 13 10 Partly Cloudy FEW048 SCT065 98 73     45%   109 29.99 29.98      
Aug 19 12:53 ENE 8 10 Clear CLR 96 74     49%   107 30.03 30.01      
Aug 19 11:53 N 9 10 Clear CLR 92 74     56%   102 30.05 30.03      
Aug 19 10:53 NNW 5 10 Clear CLR 90 75     62%   101 30.06 30.05      
Aug 19 09:53 Calm 10 Clear CLR 86 74     67%   94 30.06 30.04      
Aug 19 08:53 3 10 Clear CLR 83 74     74%   89 30.05 30.04      
Aug 19 07:53 W 3 10 Clear CLR 80 73     79%   84 30.04 30.03      
Aug 19 06:53 SW 5 10 Clear CLR 78 72     82%   79 30.04 30.03      
Aug 19 05:53 SW 5 10 Clear CLR 77 72     84%   78 30.02 30.01      
Aug 19 04:53 WSW 5 10 Clear CLR 78 71     79%   79 30.01 30      
Aug 19 03:53 SSW 7 10 Clear CLR 78 72     82%   79 30 29.98      
Aug 19 02:53 WSW 3 10 Clear CLR 78 72     82%   79 29.99 29.98      
Aug 19 01:53 SSW 3 10 Clear CLR 78 72     82%   79 29.99 29.98      
Aug 19 00:53 S 5 10 Clear CLR 79 72     79%   82 30 29.98      
Aug 18 23:53 SSW 5 10 Clear CLR 81 72     74%   85 30 29.98      
Aug 18 22:53 S 7 10 Clear CLR 82 73     74%   87 29.99 29.98      
Aug 18 21:53 S 7 10 Clear CLR 83 73     72%   89 29.98 29.97      
Aug 18 20:53 S 6 10 Clear CLR 86 72     63%   92 29.97 29.96      
Aug 18 19:53 SSE 6 10 Clear CLR 85 71     63%   90 29.96 29.95      
Aug 18 18:53 SE 6 10 Clear CLR 91 70     50%   97 29.95 29.93      
Aug 18 17:53 ESE 11 10 Clear CLR 94 70     46%   100 29.94 29.93      
Aug 18 16:53 Calm 10 Partly Cloudy SCT070 99 66     34%   103 29.94 29.93      
Aug 18 15:53 Calm 10 Clear CLR 99 66     34%   103 29.94 29.93      
Aug 18 14:53 3 10 Clear CLR 98 67     36%   103 29.95 29.93      
Aug 18 13:53 5 10 Mostly Clear FEW050 96 71     45%   104 29.98 29.97      
Aug 18 12:53 5 10 Clear CLR 94 72     49%   102 30.01 30      
Aug 18 11:53 NE 5 10 Clear CLR 90 74     59%   99 30.04 30.03      
Aug 18 10:53 E 5 10 Mostly Clear FEW017 87 75     68%   97 30.04 30.03      
Aug 18 10:09 6 10 Partly Cloudy SCT011 84 74     72%   91 30.03        
Aug 18 09:53 5 10 Mostly Cloudy BKN010 82 74     77%   88 30.03 30.02      
Aug 18 09:35 E 5 10 Mostly Cloudy BKN010 82 74     77%   88 30.02        
Aug 18 08:53 E 7 10 Cloudy OVC009 81 74     79%   86 30.01 30      
Aug 18 08:15 ESE 6 10 Mostly Cloudy BKN008 80 74     82%   85 30.01        
Aug 18 08:02 ESE 5 10 Mostly Cloudy FEW005 BKN010 78 73     85%   80 30.02        
Aug 18 07:53 ESE 6 10 Partly Cloudy SCT008 78 73     85%   80 30.02 30.01      
Aug 18 06:53 ESE 3 7 Clear CLR 75 72     90%   76 29.98 29.97      
Aug 18 05:53 ESE 5 8 Clear CLR 73 71     94%   74 29.98 29.96      
Aug 18 04:53 Calm 10 Clear CLR 75 71     88%   76 29.97 29.96      
Aug 18 03:53 ESE 6 10 Clear CLR 74 71     91%   75 29.98 29.96      
Aug 18 02:53 S 3 10 Clear CLR 76 72     88%   77 29.97 29.96      
Aug 18 01:53 S 7 10 Clear CLR 78 72     82%   79 29.98 29.96      
Aug 18 00:53 S 6 10 Clear CLR 79 72     79%   82 29.99 29.97      
Aug 17 23:53 S 7 10 Clear CLR 80 71     74%   84 29.98 29.97      
Aug 17 22:53 S 9 10 Clear CLR 81 70     69%   84 29.97 29.96      
Aug 17 21:53 SSE 8 10 Clear CLR 76 67     74%   77 29.95 29.94      
Aug 17 20:53 Calm 10 Clear CLR 79 68     69%   80 29.94 29.93      
Aug 17 19:53 SE 3 10 Clear CLR 87 64     46%   88 29.92 29.91      
Aug 17 18:53 E 7 10 Clear CLR 92 64     40%   94 29.91 29.9      
Aug 17 17:53 SE 7 10 Clear CLR 97 60     30%   97 29.91 29.9      
May 15 10:53 E 8 10 Cloudy BKN033 OVC041 83 67     59%   86 29.99 29.98      
May 14 19:53 SE 7 10 Clear CLR 79 68     69%   80 29.93 29.92      
May 14 17:53 NE 5 10 Clear CLR 89 63     42%   90 29.92 29.91      
May 14 12:53 N 7 10 Mostly Clear FEW070 93 60     33%   93 30 29.98      
May 14 11:53 N 5 10 Clear CLR 93 64     38%   95 30.01 30      
May 13 00:53 Calm 10 Clear CLR 67 63     87%     30.07 30.06      
May 12 15:53 SW 7 10 Clear CLR 91 53     28%   89 30.08 30.07      
May 11 16:53 Calm 10 Mostly Clear FEW080 90 56     32%   88 30.05 30.04      
May 11 11:53 3 10 Clear CLR 86 59     40%   85 30.14 30.13      
Jun 12 08:37 ESE 8 10 Mostly Clear FEW015 81 70     69%   84 30.16        
Jun 11 20:53 ESE 5 10 Clear CLR 79 71     77%   82 30.1 30.09      
Jun 11 16:53 SSE 9 10 Clear CLR 84 68     59%   87 30.07 30.06      
Jun 11 10:53 SE 7 10 Mostly Clear FEW028 86 68     55%   89 30.14 30.13      
Jun 11 10:10 ESE 7 10 Partly Cloudy SCT023 85 70     61%   89 30.15        
Jun 11 09:53 SE 8 10 Mostly Cloudy BKN023 84 70     63%   88 30.15 30.14      
Jun 09 16:53 S 5 10 Clear CLR 87 56     35%   86 29.92 29.91      
Jun 09 15:53 5 10 Mostly Clear FEW060 86 56     36%   85 29.93 29.92      
Jun 08 06:53 Calm 10 Clear CLR 67 58     73%     29.89 29.88      
Jun 07 10:53 NNE 10 10 Clear CLR 80 66     62%   82 29.77 29.76      
Jun 06 13:58 N 9 2 Heavy Rain FEW027 BKN034 OVC060 75 70     84%   76 29.73   0    
Jun 06 13:43 N 10 1.25 Heavy Rain FEW006 BKN022 OVC040 74 69     85%   75 29.74   0    
Jun 06 12:53 SE 11 10 Mostly Cloudy FEW021 SCT033 BKN042 80 70     71%   83 29.75 29.74      
Jun 06 09:53 NE 9 10 Mostly Cloudy BKN007 79 71     77%   82 29.76 29.75      
Jun 06 07:53 Calm 10 Mostly Clear FEW004 74 69     85%   75 29.78 29.77      
Notice The following observation data may not be complete
Jun 05 21:03   6 Rain FEW006 BKN023 OVC110          %         0    
Jun 05 19:28 N 3 10 Mostly Cloudy SCT027 BKN065 75 68     79%   76 29.79